Regional Weather Roundup
Issued by NWS Glasgow, MT

Home | Current Version | Previous Version | Text Only | Print | Product List | Glossary On
Versions: 1 2 3 4 5 6 7 8 9 10 11 12 13 14 15 16 17 18 19 20 21 22 23 24 25 26 27 28 29 30 31 32 33 34 35 36 37 38 39 40 41 42 43 44 45 46 47 48 49 50
000
ASUS45 KGGW 232115
RWRGGW
HOURLY REGIONAL WEATHER ROUNDUP FOR NORTHEAST MONTANA
NATIONAL WEATHER SERVICE GLASGOW MONTANA
300 PM MDT SUN APR 23 2017

NOTE: "FAIR" INDICATES FEW OR NO CLOUDS BELOW 12,000 FEET WITH NO
SIGNIFICANT WEATHER AND/OR OBSTRUCTIONS TO VISISBILITY.

NORTHEAST MONTANA


CITY           SKY/WX    TMP DP  RH WIND       PRES   REMARKS
GLASGOW        CLOUDY    41  32  70 E21       29.79F
PLENTYWOOD       N/A     33  30  88 SE12G20     N/A
WOLF POINT     CLOUDY    43  31  62 E20       29.83F
JORDAN           N/A     57  41  55 E13       29.72S
WINNETT          N/A     55  40  56 NE10        N/A
SIDNEY         CLOUDY    38  29  70 E18G24    29.87F
GLENDIVE       PTSUNNY   46  33  60 E15G25    29.81F
MALTA            N/A     44  35  70 E9G17       N/A
SCOBEY           N/A     32  24  73 E14G24    29.85F

FORT PECK REPORTS


CITY           SKY/WX    TMP DP  RH WIND       PRES   REMARKS
FORT PECK        N/A     42  33  70 E23G31      N/A
THE PINES        N/A     45  33  63 NW3         N/A

SOUTHEAST MONTANA


CITY           SKY/WX    TMP DP  RH WIND       PRES   REMARKS
BILLINGS       CLOUDY    65  34  31 SW7       29.65F
MILES CITY     CLOUDY    58  41  53 NE13      29.71F
BAKER          PTSUNNY   43  33  68 E17       29.79F
LIVINGSTON     CLOUDY    60  34  37 SW22      29.66F

CENTRAL MONTANA


CITY           SKY/WX    TMP DP  RH WIND       PRES   REMARKS
HAVRE          CLOUDY    50  41  71 NE8       29.74F
LEWISTOWN      CLOUDY    53  41  63 NE10G20   29.71F
GREAT FALLS    CLOUDY    47  42  83 NW7       29.74S
CUT BANK       CLOUDY    52  39  61 S12       29.70F
HELENA         CLOUDY    50  41  71 W15       29.73R
BUTTE          CLOUDY    45  34  65 NW5       29.78S
BOZEMAN        LGT RAIN  52  38  58 W24G36    29.69S

WESTERN MONTANA


CITY           SKY/WX    TMP DP  RH WIND       PRES   REMARKS
MISSOULA       CLOUDY    52  41  66 SW13      29.80F
KALISPELL      NOT AVBL

NORTH DAKOTA


CITY           SKY/WX    TMP DP  RH WIND       PRES   REMARKS
WILLISTON      CLOUDY    34  27  75 E20G25    29.93F
DICKINSON      CLOUDY    37  31  78 E15       29.84F
MINOT          LGT SNOW  31  28  89 E23G30    30.01F VSB 1
BISMARCK       CLOUDY    40  34  79 E22       29.92F

SOUTHERN SASKATCHEWAN


CITY           SKY/WX    TMP DP  RH WIND       PRES   REMARKS
REGINA         CLOUDY    39  12  33 SE24G32   29.96F
ESTEVAN        FLURRIES  34  25  69 E22G33    29.98F
SWIFT CURRENT  CLOUDY    34  30  86 SE20      29.80F




USA.gov is the U.S. government's official web portal to all federal, state and local government web resources and services.